Location: Cactus School
(34.5700°N, 118.0931°W)
Time: 15:07:38
(UTC-07:00)

Vanguard 2 Rocket - All Passes

Search period start: 22 April 2018 00:00
Search period end: 02 May 2018 00:00
Orbit: 553 x 3328 km, 32.9° (Epoch: 21 April)

Date Brightness Start Highest point End Pass type
(mag) Time Alt. Az. Time Alt. Az. Time Alt. Az.
22 Apr - 02:10:02 10° S 02:20:38 26° SE 02:34:37 10° E visible
22 Apr - 04:20:15 10° SW 04:35:49 61° SSE 04:55:41 10° ENE visible
22 Apr - 06:35:07 10° WSW 06:54:19 84° S 07:13:30 10° E daylight
22 Apr - 08:52:56 10° W 09:13:36 79° SSW 09:29:15 10° ESE daylight
22 Apr - 11:12:34 10° WNW 11:30:18 48° SW 11:41:59 10° SE daylight
22 Apr - 13:37:07 10° W 13:43:21 14° SW 13:48:28 10° SSW daylight
23 Apr - 01:13:51 10° SSE 01:20:42 16° SE 01:29:05 10° E visible
23 Apr - 03:20:58 10° SW 03:34:30 49° SE 03:53:13 10° ENE visible
23 Apr - 05:34:19 10° WSW 05:51:53 79° SSE 06:12:05 10° E visible
23 Apr - 07:51:00 10° W 08:11:19 84° S 08:28:54 10° ESE daylight
23 Apr - 10:09:45 10° WNW 10:29:22 61° SSW 10:43:01 10° SE daylight
23 Apr - 12:31:21 10° W 12:43:48 25° SW 12:52:47 10° S daylight
24 Apr - 02:22:26 10° SSW 02:33:50 37° SE 02:50:07 10° E visible
24 Apr - 04:34:07 10° WSW 04:49:46 71° SSE 05:10:10 10° E visible
24 Apr - 06:49:33 10° W 07:08:47 85° S 07:28:00 10° E daylight
24 Apr - 09:07:23 10° W 09:27:48 71° SSW 09:43:26 10° ESE daylight
24 Apr - 11:27:25 10° W 11:43:45 37° SW 11:55:09 10° SSE daylight
25 Apr - 01:24:50 10° S 01:33:48 25° SE 01:46:10 10° E visible
25 Apr - 03:34:33 10° SW 03:48:12 61° SSE 04:07:48 10° ENE visible
25 Apr - 05:48:39 10° WSW 06:06:14 84° S 06:26:33 10° E daylight
25 Apr - 08:05:28 10° W 08:25:41 79° SSW 08:43:14 10° ESE daylight
25 Apr - 10:24:20 10° WNW 10:43:04 49° SW 10:56:36 10° SE daylight
25 Apr - 12:48:22 10° W 12:56:53 16° SW 13:03:49 10° SSW daylight
26 Apr - 00:29:13 10° SSE 00:34:15 14° SE 00:40:18 10° E visible
26 Apr - 02:35:35 10° SW 02:47:16 48° SE 03:04:59 10° ENE visible
26 Apr - 04:48:18 10° WSW 05:03:58 79° SSE 05:24:37 10° E visible
26 Apr - 07:04:03 10° W 07:23:14 84° S 07:42:26 10° ESE daylight
26 Apr - 09:21:52 10° WNW 09:41:45 61° SSW 09:57:19 10° SE daylight
26 Apr - 11:42:54 10° W 11:56:58 27° SW 12:07:34 10° S daylight
27 Apr - 01:37:19 10° SSW 01:47:01 35° SE 02:01:42 10° E visible
27 Apr - 03:48:30 10° WSW 04:02:10 71° SSE 04:22:15 10° E visible
27 Apr - 06:03:06 10° W 06:20:41 85° S 06:41:02 10° E daylight
27 Apr - 08:19:56 10° W 08:39:52 71° SSW 08:57:21 10° ESE daylight
27 Apr - 10:39:12 10° W 10:56:30 38° SW 11:09:39 10° SSE daylight
28 Apr - 00:40:00 10° S 00:47:21 22° SE 00:57:41 10° E visible
28 Apr - 02:49:15 10° SW 03:00:59 60° SSE 03:19:33 10° ENE visible
28 Apr - 05:02:41 10° W 05:18:20 84° S 05:39:06 10° E visible
28 Apr - 07:18:32 10° W 07:37:35 79° SSW 07:56:44 10° ESE daylight
28 Apr - 09:36:27 10° WNW 09:55:27 50° SW 10:10:47 10° SE daylight
28 Apr - 11:59:48 10° W 12:10:05 18° SW 12:18:37 10° SSW daylight
28 Apr - 23:45:25 10° SE 23:48:08 11° SE 23:51:11 10° ESE visible
29 Apr - 01:50:33 10° SW 02:00:28 46° SE 02:16:34 10° E visible
29 Apr - 04:02:44 10° WSW 04:16:23 79° SSE 04:36:42 10° E visible
29 Apr - 06:17:36 10° W 06:35:08 83° S 06:55:27 10° ESE daylight
29 Apr - 08:34:25 10° WNW 08:53:49 61° SSW 09:11:09 10° SE daylight
29 Apr - 10:54:42 10° W 11:09:45 28° SW 11:21:56 10° S daylight
30 Apr - 00:52:30 10° SSW 01:00:37 32° SE 01:13:17 10° E visible
30 Apr - 03:03:16 10° WSW 03:14:59 71° SSE 03:34:00 10° E visible
30 Apr - 05:17:09 10° W 05:32:47 85° S 05:53:33 10° E visible
30 Apr - 07:32:59 10° W 07:51:46 70° SSW 08:10:47 10° ESE daylight
30 Apr - 09:51:21 10° W 10:08:55 39° SW 10:23:42 10° SSE daylight
30 Apr - 23:55:28 10° S 00:01:18 19° SE 00:09:22 10° E visible
01 May - 02:04:16 10° SW 02:14:14 59° SSE 02:31:07 10° E visible
01 May - 04:17:08 10° W 04:30:45 84° S 04:51:09 10° E visible
01 May - 06:32:05 10° W 06:49:29 78° SSW 07:09:42 10° ESE daylight
01 May - 08:49:03 10° W 09:07:33 50° SW 09:24:30 10° SE daylight
01 May - 11:11:34 10° W 11:22:57 19° SW 11:32:51 10° SSW daylight
